Location: Saddleback Butte
(34.6776°N, 117.8050°W)
Time: 04:51:51
(UTC-07:00)

Iridium 35 - Visible Passes

Search period start: 01 August 2014 00:00
Search period end: 11 August 2014 00:00
Orbit: 776 x 779 km, 86.4° (Epoch: 31 July)

Date Brightness Start Highest point End Pass type
(mag) Time Alt. Az. Time Alt. Az. Time Alt. Az.
03 Aug 8.0 05:27:21 10° ESE 05:30:37 17° E 05:33:53 10° NE visible
06 Aug 7.6 05:26:22 10° SE 05:30:33 25° E 05:34:44 10° NNE visible
07 Aug 8.1 04:55:03 10° ESE 04:57:20 13° E 04:59:36 10° NE visible
09 Aug 6.7 05:25:47 10° SSE 05:30:31 37° E 05:35:16 10° NNE visible
10 Aug 7.8 04:53:36 10° SE 04:57:14 20° E 05:00:52 10° NE visible
